Location: Proctor
(47.8934°N, 114.3048°W)
Time: 02:07:02
(UTC+00:00)

STRAND 1 - Pass Details

Date: 01 July 2022
Orbit: 767 x 781 km, 98.4° (Epoch: 07 August)

Event Time Altitude Azimuth Distance (km) Brightness Sun altitude
Rises 04:36:01 0° 360° (N) 3,274 ? -7.8°
Reaches altitude 10° 04:39:24 10° 336° (NNW) 2,338 ? -8.1°
Maximum altitude 04:42:01 14° 306° (NW) 2,051 ? -8.4°
Drops below altitude 10° 04:44:38 10° 275° (W) 2,326 ? -8.7°
Sets 04:48:00 0° 251° (WSW) 3,245 ? -9.1°
